User: anonymous   Login
Location: Unspecified
(0.0000°N, 0.0000°E)
Time: 02:37:44
(UTC+00:00)
Language:

SR 8 - Orbit

View from above orbital plane
View from above orbital plane
View from above satellite
View from above satellite

Ground track
Ground track

The orbit data is extracted from the following two-line orbital elements,

1  1738U 65093A   18267.91162428 -.00000107 +00000-0 +14017-4 0  9995
2  1738 059.7075 108.5880 0128861 339.0052 020.5721 14.40168508749792
Epoch (UTC): 24 September 2018 21:52:44
Eccentricity: 0.0128861
inclination: 59.7075°
perigee height: 666 km
apogee height: 850 km
right ascension of ascending node: 108.5880°
argument of perigee: 339.0052°
revolutions per day: 14.40168508
mean anomaly at epoch: 20.5721°
orbit number at epoch: 74979

The dashed part of the orbit path shows where the satellite is in the earth's shadow,  

DLR